Location: Hardenberg
(52.5670°N, 6.6170°E)
Time: 20:41:57
(UTC+02:00)

ISS - Pass Details

Date: 19 May 2021
Orbit: 417 x 422 km, 51.6° (Epoch: 12 June)

Event Time Altitude Azimuth Distance (km) Brightness Sun altitude
Rises 00:28:40 0° 270° (W) 2,368 0.3 -16.5°
Reaches altitude 10° 00:30:45 10° 269° (W) 1,504 -0.8 -16.5°
Maximum altitude 00:34:08 77° 184° (S) 437 -3.9 -16.7°
Enters shadow 00:36:26 19° 100° (E) 1,078 -1.9 -16.7°
